Location: Hohenfelde
(53.8441°N, 9.6220°E)
Time: 11:49:20
(UTC+00:00)

Meteor 1-11 Rocket - Pass Details

Date: 14 July 2020
Orbit: 832 x 915 km, 81.2° (Epoch: 12 August)

Event Time Altitude Azimuth Distance (km) Brightness Sun altitude
Exits shadow 02:04:15 - 198° (SSW) 2,667 5.7 -7.3°
Reaches altitude 10° 02:04:51 10° 199° (SSW) 2,441 5.5 -7.3°
Maximum altitude 02:10:22 76° 285° (WNW) 863 3.7 -6.8°
Drops below altitude 10° 02:15:56 10° 12° (NNE) 2,460 7.3 -6.3°
Sets 02:18:22 0° 14° (NNE) 3,405 8.2 -6.0°
